Preview of NWS' New Version of Forecast
This preview is not operational and should not be used for support decisions.

Regional Weather Roundup (RWR)

Issued by National Weather Service (NWS)

                            
000
ASUS44 KMEG 260200
RWRTN 
TENNESSEE HOURLY STATE WEATHER ROUNDUP
NATIONAL WEATHER SERVICE MEMPHIS TN
900 PM CDT SAT MAY 25 2019

TNZ002-004-019-021-049-052-054-088>092-260300-
WEST TENNESSEE
  
CITY           SKY/WX    TMP DP  RH WIND       PRES   REMARKS
MEMPHIS INTL   FAIR      81  68  64 SW6       30.05S                  
NWS MEMPHIS      N/A     83 N/A N/A MISG        N/A                   
JACKSON        FAIR      74  70  87 S3        30.08S                  
DYERSBURG      FAIR      80  68  66 SE3       30.05F                  
$$

TNZ008-025-027-028-033-062-065-066-260300-
NORTH MIDDLE TENNESSEE
  
CITY           SKY/WX    TMP DP  RH WIND       PRES   REMARKS
NASHVILLE      FAIR      80  64  58 S3        30.10S                  
CLARKSVILLE    FAIR      78  63  59 CALM      30.08S                  
SMYRNA         FAIR      76  67  73 CALM      30.11S                  
CROSSVILLE     FAIR      70  63  78 CALM      30.19S                  
$$

TNZ061-075-076-078-094-096-097-260300-
SOUTH MIDDLE TENNESSEE
  
CITY           SKY/WX    TMP DP  RH WIND       PRES   REMARKS
$$

TNZ017-018-042-046-047-260300-
NORTHEAST TENNESSEE
  
CITY           SKY/WX    TMP DP  RH WIND       PRES   REMARKS
TRI CITIES     FAIR      77  65  66 SW5       30.16R                  
$$

TNZ012-013-036-069-073-074-260300-
CENTRAL EAST TENNESSEE
  
CITY           SKY/WX    TMP DP  RH WIND       PRES   REMARKS
KNOXVILLE      FAIR      80  65  59 SW5       30.12S                  
OAK RIDGE      FAIR      79  66  64 CALM      30.14S                  
$$

TNZ083-085-099-260300-
SOUTHEAST TENNESSEE
  
CITY           SKY/WX    TMP DP  RH WIND       PRES   REMARKS
CHATTANOOGA    FAIR      83  68  60 CALM      30.12S                  
$$

SKY/WX REPORTED AS FAIR MEANS FEW OR NO CLOUDS BELOW
12 THOUSAND FEET.